Time_in_sec,Latitude,Longitude,Altitude,Nbsat_max_qualitysignal,Nbsat_locked,valid_data
1314891526.24093938,46.54775620,8.71091938,1971.90136719,0,4,1
1314891609.79252744,46.54718018,8.71080685,1973.24694824,0,6,1
1314891609.84058404,46.54718018,8.71080685,1973.22644043,0,6,1
1314891609.89251256,46.54718018,8.71080589,1973.33813477,0,6,1
1314891609.94552422,46.54718018,8.71080589,1973.31811523,0,6,1
1314891609.99257922,46.54718018,8.71080589,1973.29809570,0,6,1
1314891610.04456735,46.54718018,8.71080589,1973.27795410,0,6,1
1314891610.09253502,46.54718018,8.71080589,1973.25793457,0,6,1
1314891610.14161611,46.54718018,8.71080685,1973.38696289,0,6,1
1314891610.19257855,46.54718018,8.71080685,1973.36730957,0,6,1
1314891610.24550915,46.54718018,8.71080685,1973.34765625,0,6,1
1314891610.29252601,46.54718018,8.71080685,1973.32800293,0,6,1
1314891610.34081960,46.54718018,8.71080685,1973.30834961,0,6,1
1314891610.39360619,46.54718399,8.71080685,1973.42626953,0,6,1
1314891610.44062042,46.54718399,8.71080685,1973.40698242,0,6,1
1314891610.49253130,46.54718399,8.71080685,1973.38769531,0,6,1
1314891610.54061079,46.54718399,8.71080685,1973.36840820,0,6,1
1314891610.59258223,46.54718399,8.71080685,1973.34912109,0,6,1
1314891610.64161181,46.54718399,8.71080685,1973.47436523,0,6,1
1314891610.69259262,46.54718399,8.71080875,1973.45703125,0,6,1
1314891610.74061561,46.54718781,8.71080875,1973.43811035,0,6,1
1314891610.79251289,46.54718781,8.71080875,1973.41918945,0,6,1
1314891610.84450364,46.54718781,8.71080875,1973.40026855,0,6,1
1314891610.89364862,46.54718781,8.71081066,1973.55249023,0,6,1
1314891610.94057035,46.54718781,8.71081066,1973.53405762,0,6,1
1314891610.99255490,46.54718781,8.71081066,1973.51574707,0,6,1
1314891611.04055858,46.54718781,8.71081066,1973.49731445,0,6,1
1314891611.09253693,46.54718781,8.71081066,1973.47900391,0,6,1
1314891611.14056492,46.54718781,8.71081066,1973.64038086,0,6,1
1314891611.19244361,46.54718781,8.71081066,1973.62255859,0,6,1
1314891611.24453306,46.54718781,8.71081066,1973.60473633,0,6,1
1314891611.29461312,46.54718781,8.71081066,1973.58691406,0,6,1
1314891611.34347129,46.54718781,8.71081066,1973.56909180,0,6,1
1314891611.39060974,46.54718399,8.71081257,1973.72436523,0,6,1
1314891611.44444060,46.54718399,8.71081257,1973.70715332,0,6,1
1314891611.49468756,46.54718399,8.71081257,1973.68981934,0,6,1
1314891611.54457879,46.54718399,8.71081257,1973.67248535,0,6,1
1314891611.59457612,46.54718781,8.71081257,1973.65502930,0,6,1
1314891611.64057946,46.54718781,8.71081352,1973.80590820,0,6,1
1314891611.69351649,46.54718399,8.71081352,1973.77868652,0,6,1
1314891611.74113822,46.54718399,8.71081352,1973.76184082,0,6,1
1314891611.79507136,46.54718399,8.71081352,1973.74487305,0,6,1
1314891611.84126425,46.54718399,8.71081352,1973.72802734,0,6,1
1314891611.89352322,46.54718399,8.71081257,1973.85656738,0,6,1
1314891611.94127917,46.54718399,8.71081257,1973.84008789,0,6,1
1314891611.99409151,46.54718399,8.71081257,1973.82348633,0,6,1
1314891612.04159641,46.54718399,8.71081257,1973.80700684,0,6,1
1314891612.09352422,46.54718399,8.71081257,1973.79040527,0,6,1
1314891612.14049172,46.54718399,8.71081257,1973.92175293,0,6,1
1314891612.19496369,46.54718399,8.71081257,1973.90551758,0,6,1
1314891612.24058509,46.54718399,8.71081257,1973.88940430,0,6,1
1314891612.29257131,46.54718399,8.71081257,1973.87304688,0,6,1
1314891612.34113550,46.54718399,8.71081257,1973.85681152,0,6,1
1314891612.39355183,46.54718781,8.71081257,1973.99645996,0,6,1
1314891612.44160676,46.54718781,8.71081257,1973.98071289,0,6,1
1314891612.49249744,46.54718781,8.71081257,1973.96496582,0,6,1
1314891612.54091859,46.54718781,8.71081257,1973.94909668,0,6,1
1314891612.59276009,46.54718781,8.71081257,1973.93322754,0,6,1
1314891612.64055657,46.54718781,8.71081352,1974.08117676,0,6,1
1314891612.69256210,46.54718781,8.71081161,1974.05798340,0,6,1
1314891612.74063253,46.54718781,8.71081161,1974.04260254,0,6,1
1314891612.79252505,46.54718781,8.71081161,1974.02709961,0,6,1
1314891612.84087753,46.54718781,8.71081161,1974.01171875,0,6,1
1314891612.89257860,46.54718781,8.71081066,1974.15332031,0,6,1
1314891612.94153023,46.54718781,8.71081066,1974.13842773,0,6,1
1314891612.99292064,46.54718781,8.71081066,1974.12341309,0,6,1
1314891613.04106426,46.54718781,8.71081066,1974.10852051,0,6,1
1314891613.09264398,46.54718781,8.71081066,1974.09350586,0,6,1
1314891613.14458990,46.54718781,8.71081066,1974.22802734,0,6,1
1314891613.19320726,46.54718781,8.71081066,1974.21972656,0,6,1
1314891613.24556160,46.54718781,8.71081066,1974.20520020,0,6,1
1314891613.29314160,46.54718781,8.71081066,1974.19067383,0,6,1
1314891613.34061408,46.54718781,8.71080971,1974.17614746,0,6,1
1314891613.39365530,46.54718781,8.71081066,1974.31530762,0,6,1
1314891613.44550276,46.54718781,8.71081066,1974.30126953,0,6,1
1314891613.49268103,46.54718781,8.71081066,1974.28723145,0,6,1
1314891613.54060102,46.54718781,8.71081066,1974.27331543,0,6,1
1314891613.59258533,46.54718781,8.71081066,1974.25927734,0,6,1
1314891613.64060307,46.54718781,8.71081161,1974.39111328,0,6,1
1314891613.69362473,46.54718781,8.71081161,1974.37756348,0,6,1
1314891613.74058747,46.54718781,8.71081161,1974.36401367,0,6,1
1314891613.79517388,46.54718781,8.71081161,1974.35046387,0,6,1
1314891613.84166551,46.54718781,8.71081161,1974.33679199,0,6,1
1314891613.89377546,46.54718781,8.71081257,1974.47399902,0,6,1
1314891613.94057202,46.54718781,8.71081257,1974.46093750,0,6,1
1314891613.99257326,46.54718781,8.71081161,1974.44787598,0,6,1
1314891614.04057789,46.54718781,8.71081161,1974.43469238,0,6,1
1314891614.09366941,46.54718781,8.71081161,1974.42150879,0,6,1
1314891614.14050174,46.54718781,8.71081257,1974.54333496,0,6,1
1314891614.19258642,46.54718781,8.71081257,1974.53051758,0,6,1
1314891614.24051094,46.54718781,8.71081257,1974.51782227,0,6,1
1314891614.29249120,46.54718781,8.71081257,1974.50500488,0,6,1
1314891614.34052753,46.54718781,8.71081257,1974.49230957,0,6,1
1314891614.39247084,46.54718781,8.71081352,1974.63977051,0,6,1
1314891614.44151902,46.54718781,8.71081352,1974.62756348,0,6,1
1314891614.49257946,46.54718781,8.71081352,1974.61535645,0,6,1
1314891614.54057860,46.54718781,8.71081352,1974.60314941,0,6,1
1314891614.59253240,46.54718781,8.71081352,1974.59082031,0,6,1
1314891614.64057899,46.54718781,8.71081352,1974.73168945,0,6,1
1314891614.69492102,46.54718399,8.71081448,1974.71838379,0,6,1
1314891614.74057198,46.54718399,8.71081448,1974.70654297,0,6,1
1314891614.80148315,46.54718399,8.71081448,1974.69470215,0,6,1
1314891614.84057713,46.54718399,8.71081448,1974.68029785,0,6,1
1314891614.89352751,46.54718399,8.71081543,1974.82226562,0,6,1
1314891614.94151449,46.54718399,8.71081543,1974.81091309,0,6,1
1314891614.99316788,46.54718399,8.71081543,1974.79943848,0,6,1
1314891615.04059911,46.54718399,8.71081448,1974.78796387,0,6,1
1314891615.09360743,46.54718399,8.71081448,1974.77661133,0,6,1
1314891615.14057398,46.54718399,8.71081543,1974.91223145,0,6,1
1314891615.19316983,46.54718399,8.71081543,1974.90124512,0,6,1
1314891615.24061537,46.54718399,8.71081543,1974.89013672,0,6,1
1314891615.29250097,46.54718399,8.71081543,1974.87915039,0,6,1
1314891615.34052444,46.54718399,8.71081543,1974.86816406,0,6,1
1314891615.39303088,46.54718399,8.71081734,1975.00866699,0,6,1
1314891615.44160295,46.54718399,8.71081734,1974.99816895,0,6,1
1314891615.49248242,46.54718399,8.71081734,1974.98754883,0,6,1
1314891615.54061222,46.54718399,8.71081734,1974.97692871,0,6,1
1314891615.59359932,46.54718399,8.71081734,1974.96630859,0,6,1
1314891615.64061928,46.54718781,8.71081829,1975.10815430,0,6,1
1314891615.69287610,46.54718781,8.71081829,1975.09802246,0,6,1
1314891615.74060631,46.54718781,8.71081829,1975.08776855,0,6,1
1314891615.79251313,46.54718781,8.71081829,1975.07751465,0,6,1
1314891615.84057927,46.54718781,8.71081829,1975.06726074,0,6,1
1314891615.89361811,46.54718781,8.71082020,1975.19860840,0,6,1
1314891615.94160390,46.54718781,8.71082020,1975.18872070,0,6,1
1314891615.99279809,46.54718781,8.71082020,1975.17883301,0,6,1
1314891616.04449892,46.54718781,8.71082020,1975.16894531,0,6,1
1314891616.09257126,46.54718781,8.71082020,1975.15905762,0,6,1
1314891616.14451003,46.54718781,8.71082211,1975.29418945,0,6,1
1314891616.19247866,46.54718781,8.71082211,1975.28479004,0,6,1
1314891616.24062109,46.54718781,8.71082211,1975.27526855,0,6,1
1314891616.29352474,46.54718781,8.71082211,1975.26574707,0,6,1
1314891616.34548879,46.54718781,8.71082211,1975.25622559,0,6,1
1314891616.39281774,46.54718781,8.71082306,1975.41650391,0,6,1
1314891616.44162679,46.54718781,8.71082306,1975.40759277,0,6,1
1314891616.49258399,46.54718781,8.71082306,1975.39855957,0,6,1
1314891616.54061604,46.54718781,8.71082306,1975.38964844,0,6,1
1314891616.59425831,46.54718781,8.71082306,1975.38061523,0,6,1
1314891616.64458823,46.54719162,8.71082401,1975.53967285,0,6,1
1314891616.69250417,46.54719162,8.71082401,1975.53125000,0,6,1
1314891616.74058914,46.54719162,8.71082401,1975.52270508,0,6,1
1314891616.79250145,46.54719162,8.71082401,1975.51416016,0,6,1
1314891616.84058952,46.54719162,8.71082497,1975.50561523,0,6,1
1314891616.89258480,46.54719162,8.71082592,1975.64843750,0,6,1
1314891616.94057870,46.54719162,8.71082592,1975.64025879,0,6,1
1314891616.99250841,46.54719162,8.71082592,1975.63220215,0,6,1
1314891617.04052210,46.54719162,8.71082687,1975.62402344,0,6,1
1314891617.09252810,46.54719162,8.71082687,1975.61584473,0,6,1
1314891617.14052176,46.54719543,8.71082783,1975.76855469,0,6,1
1314891617.19250941,46.54719543,8.71082783,1975.76086426,0,6,1
1314891617.24050164,46.54719543,8.71082783,1975.75317383,0,6,1
1314891617.29355502,46.54719543,8.71082783,1975.74548340,0,6,1
1314891617.34051085,46.54719543,8.71082783,1975.73779297,0,6,1
1314891617.39351201,46.54719543,8.71082878,1975.90148926,0,6,1
1314891617.44050884,46.54719543,8.71082878,1975.89428711,0,6,1
1314891617.49350238,46.54719543,8.71082878,1975.88720703,0,6,1
1314891617.54057193,46.54719543,8.71082878,1975.88000488,0,6,1
1314891617.59349847,46.54719543,8.71082878,1975.87280273,0,6,1
1314891617.64058065,46.54719543,8.71082973,1976.03527832,0,6,1
1314891617.69250917,46.54719543,8.71082878,1976.02856445,0,6,1
1314891617.74432564,46.54719543,8.71082878,1976.02197266,0,6,1
1314891617.79258537,46.54719543,8.71082878,1976.01525879,0,6,1
1314891617.84051085,46.54719543,8.71082973,1976.00866699,0,6,1
1314891617.89270282,46.54719543,8.71083164,1976.16503906,0,6,1
1314891617.94052267,46.54719543,8.71083164,1976.15881348,0,6,1
1314891617.99258041,46.54719543,8.71083164,1976.15270996,0,6,1
1314891618.04057217,46.54719543,8.71083164,1976.14648438,0,6,1
1314891618.09374547,46.54719543,8.71083164,1976.14025879,0,6,1
1314891618.14057589,46.54719543,8.71083260,1976.29174805,0,6,1
1314891618.19252682,46.54719162,8.71083260,1976.28295898,0,6,1
1314891618.24061704,46.54719162,8.71083260,1976.27722168,0,6,1
1314891618.29260492,46.54719162,8.71083260,1976.27136230,0,6,1
1314891618.34061384,46.54719162,8.71083260,1976.26562500,0,6,1
1314891618.39258862,46.54719162,8.71083355,1976.41870117,0,6,1
1314891618.44159436,46.54719162,8.71083260,1976.40307617,0,6,1
1314891618.49259186,46.54719162,8.71083260,1976.39770508,0,6,1
1314891618.54059005,46.54719162,8.71083260,1976.39233398,0,6,1
1314891618.59351444,46.54719162,8.71083260,1976.38696289,0,6,1
1314891618.64057326,46.54719162,8.71083355,1976.53271484,0,6,1
1314891618.69366264,46.54718781,8.71083164,1976.51977539,0,6,1
1314891618.74059987,46.54718781,8.71083164,1976.51477051,0,6,1
1314891618.79261875,46.54718781,8.71083164,1976.50988770,0,6,1
1314891618.84061813,46.54718781,8.71083164,1976.50488281,0,6,1
1314891618.89249682,46.54718781,8.71083069,1976.64184570,0,6,1
1314891618.94451451,46.54718781,8.71083069,1976.63732910,0,6,1
1314891618.99359083,46.54718781,8.71083069,1976.63269043,0,6,1
1314891619.04159093,46.54718781,8.71083069,1976.62817383,0,6,1
1314891619.09278703,46.54718781,8.71083069,1976.62353516,0,6,1
1314891619.14160705,46.54718781,8.71083069,1976.76074219,0,6,1
1314891619.19260216,46.54718781,8.71083069,1976.75659180,0,6,1
1314891619.24551654,46.54718781,8.71083069,1976.75244141,0,6,1
1314891619.29259825,46.54718781,8.71083069,1976.74816895,0,6,1
1314891619.34145594,46.54718781,8.71083069,1976.74389648,0,6,1
1314891619.39262366,46.54718781,8.71082973,1976.88195801,0,6,1
1314891619.44155407,46.54718781,8.71082973,1976.87817383,0,6,1
1314891619.49443626,46.54718781,8.71082973,1976.87438965,0,6,1
1314891619.54552794,46.54718781,8.71082973,1976.87060547,0,6,1
1314891619.59261250,46.54718781,8.71082973,1976.86669922,0,6,1
1314891619.64052463,46.54718781,8.71082973,1976.99499512,0,6,1
1314891619.69262433,46.54718781,8.71082973,1976.99157715,0,6,1
1314891619.74550843,46.54718399,8.71082973,1976.98815918,0,6,1
1314891619.79262280,46.54718399,8.71082973,1976.98461914,0,6,1
1314891619.84053826,46.54718399,8.71082973,1976.98107910,0,6,1
1314891619.89261699,46.54718399,8.71082878,1977.10473633,0,6,1
1314891619.94138908,46.54718399,8.71082878,1977.10156250,0,6,1
1314891619.99490786,46.54718399,8.71082878,1977.09838867,0,6,1
1314891620.04049683,46.54718399,8.71082878,1977.09521484,0,6,1
1314891620.09248829,46.54718399,8.71082878,1977.09191895,0,6,1
1314891620.14049888,46.54718399,8.71083069,1977.19946289,0,6,1
1314891620.19254160,46.54718399,8.71082973,1977.19653320,0,6,1
1314891620.24151301,46.54718399,8.71082973,1977.19360352,0,6,1
1314891620.29261875,46.54718399,8.71082973,1977.19055176,0,6,1
1314891620.34159946,46.54718399,8.71082973,1977.18750000,0,6,1
1314891620.39065146,46.54718399,8.71082973,1977.28833008,0,6,1
1314891620.44152021,46.54718399,8.71082973,1977.28552246,0,6,1
1314891620.49252176,46.54718399,8.71082973,1977.28283691,0,6,1
1314891620.54062629,46.54718399,8.71082973,1977.28002930,0,6,1
1314891620.59253049,46.54718399,8.71082973,1977.27722168,0,6,1
1314891620.64150715,46.54718399,8.71083069,1977.37536621,0,6,1
1314891620.69139266,46.54718399,8.71083069,1977.37280273,0,6,1
1314891620.74046040,46.54718399,8.71082973,1977.37023926,0,6,1
1314891620.79251266,46.54718399,8.71082973,1977.36755371,0,6,1
1314891620.84151888,46.54718399,8.71082973,1977.36499023,0,5,1
1314891620.89259219,46.54718399,8.71082973,1977.46765137,0,5,1
1314891620.94053316,46.54718399,8.71082973,1977.46545410,0,5,1
1314891620.99259996,46.54718399,8.71082973,1977.46313477,0,5,1
1314891621.04151678,46.54718399,8.71082973,1977.46081543,0,5,1
1314891621.09248137,46.54718399,8.71082973,1977.45849609,0,5,1
1314891621.14459538,46.54718399,8.71082878,1977.54199219,0,5,1
1314891621.19255805,46.54718399,8.71082878,1977.53991699,0,5,1
1314891621.24054313,46.54718399,8.71082878,1977.53771973,0,5,1
1314891621.29246044,46.54718018,8.71082878,1977.53552246,0,5,1
1314891621.34151363,46.54718018,8.71082783,1977.53332520,0,5,1
1314891621.39245033,46.54718018,8.71082878,1977.61596680,0,5,1
1314891621.44051552,46.54718018,8.71082878,1977.61401367,0,5,1
1314891621.49252152,46.54718018,8.71082878,1977.61193848,0,5,1
1314891621.54061985,46.54718018,8.71082783,1977.60986328,0,5,1
1314891621.59294510,46.54718018,8.71082783,1977.60778809,0,5,1
1314891621.64462781,46.54718018,8.71082783,1977.68481445,0,5,1
1314891621.69257951,46.54718018,8.71082783,1977.68286133,0,5,1
1314891621.74060249,46.54718018,8.71082687,1977.68090820,0,5,1
1314891621.79261255,46.54718018,8.71082687,1977.67895508,0,5,1
1314891621.84458065,46.54718018,8.71082687,1977.67700195,0,5,1
1314891621.89359999,46.54718018,8.71082687,1977.76147461,0,5,1
1314891621.94555092,46.54718018,8.71082592,1977.75964355,0,5,1
1314891621.99260235,46.54718018,8.71082592,1977.75793457,0,5,1
1314891622.04071975,46.54718018,8.71082592,1977.75610352,0,5,1
1314891622.09360433,46.54718018,8.71082592,1977.75415039,0,5,1
1314891622.14161515,46.54718018,8.71082592,1977.84350586,0,5,1
1314891622.19261146,46.54718018,8.71082592,1977.83801270,0,5,1
1314891622.24151516,46.54718018,8.71082592,1977.83642578,0,5,1
1314891622.29250884,46.54717636,8.71082592,1977.83471680,0,5,1
1314891622.34468579,46.54717636,8.71082497,1977.83312988,0,5,1
1314891622.39261198,46.54717636,8.71082687,1977.92333984,0,5,1
1314891622.44158840,46.54717636,8.71082592,1977.92199707,0,5,1
1314891622.49359322,46.54717636,8.71082592,1977.92053223,0,5,1
1314891622.54051161,46.54717636,8.71082592,1977.91918945,0,5,1
1314891622.59359479,46.54717636,8.71082592,1977.91760254,0,5,1
1314891622.64058733,46.54717636,8.71082687,1977.98132324,0,5,1
1314891622.69255495,46.54717636,8.71082687,1977.97998047,0,5,1
1314891622.74052334,46.54717636,8.71082592,1977.97863770,0,5,1
1314891622.79260492,46.54717636,8.71082592,1977.97729492,0,5,1
1314891622.84050608,46.54717636,8.71082592,1977.97583008,0,6,1
1314891622.89252090,46.54717636,8.71082687,1978.01110840,0,6,1
1314891622.94044805,46.54717636,8.71082687,1978.00988770,0,6,1
1314891622.99252152,46.54717636,8.71082687,1978.00854492,0,6,1
1314891623.04067636,46.54717636,8.71082687,1978.00708008,0,6,1
1314891623.09252477,46.54717636,8.71082592,1978.00573730,0,6,1
1314891623.14063144,46.54717636,8.71082687,1978.02258301,0,6,1
1314891623.19427562,46.54717636,8.71082687,1978.02111816,0,6,1
1314891623.24051023,46.54717636,8.71082687,1978.01977539,0,6,1
1314891623.29467392,46.54717636,8.71082687,1978.01831055,0,6,1
1314891623.34058595,46.54717636,8.71082592,1978.01684570,0,6,1
1314891623.39252210,46.54717636,8.71082687,1978.02136230,0,6,1
1314891623.44057822,46.54717636,8.71082687,1978.01989746,0,6,1
1314891623.49409747,46.54717636,8.71082687,1978.01843262,0,6,1
1314891623.54047894,46.54717636,8.71082592,1978.01684570,0,6,1
1314891623.59252906,46.54717636,8.71082592,1978.01525879,0,6,1
1314891623.64059520,46.54717636,8.71082687,1978.01745605,0,6,1
1314891623.69252181,46.54717636,8.71082687,1978.01574707,0,6,1
1314891623.74058747,46.54717636,8.71082592,1978.01416016,0,6,1
1314891623.79253006,46.54717636,8.71082592,1978.01245117,0,6,1
1314891623.84058118,46.54717636,8.71082592,1978.01062012,0,6,1
1314891623.89263296,46.54717636,8.71082687,1978.00695801,0,6,1
1314891623.94059753,46.54717636,8.71082687,1978.00512695,0,6,1
1314891623.99251699,46.54717636,8.71082592,1978.00329590,0,6,1
1314891624.04109597,46.54717636,8.71082592,1978.00146484,0,6,1
1314891624.09246111,46.54717636,8.71082592,1977.99963379,0,6,1
1314891624.14159727,46.54718018,8.71082592,1977.97448730,0,6,1
1314891624.19258571,46.54717636,8.71082592,1977.97253418,0,6,1
1314891624.24111915,46.54717636,8.71082497,1977.97045898,0,6,1
1314891624.29249477,46.54717636,8.71082497,1977.96838379,0,6,1
1314891624.34058094,46.54717636,8.71082497,1977.96630859,0,6,1
1314891624.39248514,46.54718018,8.71082497,1977.94665527,0,6,1
1314891624.44049597,46.54718018,8.71082592,1977.93493652,0,6,1
1314891624.49451137,46.54718018,8.71082497,1977.93273926,0,6,1
1314891624.54058194,46.54718018,8.71082497,1977.93029785,0,6,1
1314891624.59360361,46.54718018,8.71082497,1977.92797852,0,6,1
1314891624.64058256,46.54718018,8.71082497,1977.89978027,0,6,1
1314891624.69257307,46.54718018,8.71082497,1977.89721680,0,6,1
1314891624.74060488,46.54718018,8.71082497,1977.89465332,0,6,1
1314891624.79360247,46.54718018,8.71082497,1977.89208984,0,6,1
1314891624.84563136,46.54718018,8.71082497,1977.88940430,0,6,1
1314891624.89257312,46.54718018,8.71082497,1977.84997559,0,6,1
1314891624.94160604,46.54718018,8.71082401,1977.84716797,0,6,1
1314891624.99353004,46.54718018,8.71082401,1977.84436035,0,6,1
1314891625.04555416,46.54717636,8.71082401,1977.84143066,0,6,1
1314891625.09308600,46.54717636,8.71082401,1977.83850098,0,6,1
1314891625.14557409,46.54717636,8.71082306,1977.77990723,0,6,1
1314891625.19318104,46.54717636,8.71082306,1977.77661133,0,6,1
1314891625.24161720,46.54717636,8.71082306,1977.77331543,0,6,1
1314891625.29257369,46.54717636,8.71082211,1977.77001953,0,6,1
1314891625.34061408,46.54717636,8.71082211,1977.76672363,0,6,1
1314891625.39260411,46.54717636,8.71082211,1977.71008301,0,6,1
1314891625.44152880,46.54717636,8.71082115,1977.70642090,0,6,1
1314891625.49348307,46.54717636,8.71082115,1977.70275879,0,6,1
1314891625.54057527,46.54717636,8.71082115,1977.69897461,0,6,1
1314891625.59258223,46.54717636,8.71082115,1977.69531250,0,6,1
1314891625.64061785,46.54717636,8.71082020,1977.63659668,0,6,1
1314891625.69349933,46.54717636,8.71082020,1977.63256836,0,6,1
1314891625.74162030,46.54717636,8.71082020,1977.62854004,0,6,1
1314891625.79355884,46.54717636,8.71082020,1977.62451172,0,6,1
1314891625.84055972,46.54717255,8.71081924,1977.62048340,0,6,1
1314891625.89355206,46.54717255,8.71081924,1977.55737305,0,6,1
1314891625.94054222,46.54717255,8.71081924,1977.55297852,0,6,1
1314891625.99355054,46.54717255,8.71081924,1977.54870605,0,6,1
1314891626.04046726,46.54717255,8.71081924,1977.54431152,0,6,1
1314891626.09436178,46.54717255,8.71081924,1977.53979492,0,6,1
1314891626.14045668,46.54717255,8.71081829,1977.47875977,0,6,1
1314891626.19152403,46.54717255,8.71081829,1977.46704102,0,6,1
1314891626.24441624,46.54717255,8.71081829,1977.46228027,0,6,1
1314891626.29457831,46.54717255,8.71081829,1977.45739746,0,6,1
1314891626.34058189,46.54717255,8.71081734,1977.45263672,0,6,1
1314891626.39451575,46.54717255,8.71081734,1977.38354492,0,6,1
1314891626.44166303,46.54717255,8.71081734,1977.37023926,0,6,1
1314891626.49258208,46.54717255,8.71081734,1977.36499023,0,6,1
1314891626.54051423,46.54717255,8.71081638,1977.35974121,0,6,1
1314891626.59351015,46.54716873,8.71081638,1977.35437012,0,6,1
1314891626.64151955,46.54717255,8.71081543,1977.28259277,0,6,1
1314891626.69360542,46.54717255,8.71081734,1977.27990723,0,6,1
1314891626.74150515,46.54717255,8.71081638,1977.27429199,0,6,1
1314891626.79248857,46.54717255,8.71081638,1977.26867676,0,6,1
1314891626.84150648,46.54716873,8.71081638,1977.26293945,0,6,1
1314891626.89252734,46.54717255,8.71081543,1977.14611816,0,6,1
1314891626.94151187,46.54716873,8.71081543,1977.13989258,0,6,1
1314891626.99264121,46.54716873,8.71081543,1977.13378906,0,6,1
1314891627.04046893,46.54716873,8.71081543,1977.12756348,0,6,1
1314891627.09264421,46.54716873,8.71081543,1977.12133789,0,6,1
1314891627.14046383,46.54716873,8.71081448,1976.98852539,0,6,1
1314891627.19260597,46.54716873,8.71081448,1976.98168945,0,6,1
1314891627.24113607,46.54716873,8.71081352,1976.97497559,0,6,1
1314891627.29252338,46.54716873,8.71081352,1976.96813965,0,6,1
1314891627.34058309,46.54716873,8.71081352,1976.96130371,0,6,1
1314891627.39360499,46.54716873,8.71081257,1976.82324219,0,6,1
1314891627.44161105,46.54716873,8.71081257,1976.81188965,0,6,1
1314891627.49260807,46.54716873,8.71081257,1976.80456543,0,6,1
1314891627.54099965,46.54716873,8.71081257,1976.79711914,0,6,1
1314891627.59257936,46.54716873,8.71081257,1976.78967285,0,6,1
